カタログに戻る

COSMOS 1953

運用中軍事PO
NORAD 19210·PAYLOAD·🇷🇺 Russia

打ち上げ Jun 14, 1988 から Plesetsk Cosmodrome

Loading…

次のパス (今後24時間)

TLE

最新Source: Space-Track

元期: Sep 14, 2026, 21:57 UTC

1 19210U 88050A   26257.91465681  .00006516  00000-0  21565-3 0  9996
2 19210  82.5090 327.4810 0011012 166.9253 193.2276 15.31071518 66713

AllMySatでCOSMOS 1953をリアルタイム追跡

Download on the App Store